Home > Weather > U.S.A. > Breckenridge > Past weeks

Flag for U.S.A. Weather past 2 weeks in Breckenridge, Colorado, U.S.A.

3 °F


Feels Like: -18 °F
Forecast: 6 / 25 °F
Wind: 20 mph from Northwest

Location: Copper Mountain - Red Cliff Pass

Current Time: Dec 1, 2015 at 5:02:15 AM

Latest Report: Dec 1, 2015 at 4:35 AM

Visibility: N/A

Pressure: 29.87 "Hg (20.26 "Hg at 2921m altitude)

Humidity: 66%

Dew point: -6 °F

Location of BreckenridgeLocation

Historic Weather in Breckenridge — Graph


Breckenridge temperature yesterday

Maximum temperature yesterday: 12 °F (at 12:15 AM)
Minimum temperature yesterday: 1 °F (at 8:15 AM)
Average temperature yesterday: 5 °F

Past Weeks' High & Low Weather Summary

High37 °F (Nov 25, 2:36 PM)86% (Nov 16, 12:56 PM)30.37 "Hg (Nov 16, 12:56 PM)
Low1 °F (Nov 30, 8:15 AM)8% (Nov 21, 7:36 AM)29.55 "Hg (Nov 16, 12:16 PM)
Average23 °F54%29.98 "Hg
* Reported Nov 16 3:16 AM — Dec 1 3:55 AM, Breckenridge, Weather by CustomWeather, © 2015

Note: Actual official high and low records may vary slightly from our data, if they occured in-between our weather recording intervals... More about our weather records


Breckenridge weather history for previous 24 hours

Time TempWeatherWind HumidityBarometerVisibility
3:55 AM
Tue, Dec 1
3 °FMostly cloudy.17 mph66%29.87 "HgN/A
3:35 AM3 °FMostly cloudy.20 mph66%29.87 "HgN/A
2:55 AM3 °FOvercast.22 mph66%29.86 "HgN/A
2:35 AM3 °FOvercast.21 mph72%29.87 "HgN/A
2:15 AM3 °FMostly cloudy.23 mph72%29.86 "HgN/A
1:55 AM3 °FMostly cloudy.21 mph72%29.86 "HgN/A
12:55 AM5 °FMostly cloudy.29 mph66%29.85 "HgN/A
12:35 AM5 °FOvercast.21 mph66%29.86 "HgN/A
11:55 PM
Mon, Nov 30
3 °FMostly cloudy.21 mph72%29.86 "HgN/A
11:15 PM3 °FMostly cloudy.25 mph66%29.84 "HgN/A
10:55 PM3 °FMostly cloudy.21 mph66%29.84 "HgN/A
10:35 PM3 °FOvercast.24 mph66%29.84 "HgN/A
9:55 PM3 °FOvercast.16 mph66%29.84 "HgN/A
9:15 PM3 °FMostly cloudy.10 mph66%29.84 "HgN/A
8:55 PM3 °FMostly cloudy.18 mph66%29.82 "HgN/A
8:35 PM3 °FMostly cloudy.20 mph66%29.81 "HgN/A
7:55 PM3 °FMostly cloudy.15 mph66%29.82 "HgN/A
7:35 PM3 °FMostly cloudy.20 mph66%29.81 "HgN/A
7:15 PM3 °FMostly cloudy.20 mph66%29.80 "HgN/A
5:35 PM5 °FLow clouds.17 mph66%29.78 "HgN/A
4:55 PM5 °FLow clouds.20 mph66%29.76 "HgN/A
4:35 PM5 °FMostly cloudy.17 mph66%29.77 "HgN/A
4:15 PM5 °FMostly cloudy.15 mph66%29.76 "HgN/A
3:35 PM5 °FLow clouds.17 mph66%29.75 "HgN/A
2:55 PM5 °FMore clouds than sun.14 mph66%29.75 "HgN/A
2:35 PM5 °FLow clouds.16 mph66%29.74 "Hg1 mi
1:55 PM5 °FLow clouds.18 mph66%29.74 "Hg1 mi
1:35 PM5 °FLow clouds.14 mph66%29.75 "Hg1 mi
1:15 PM5 °FLow clouds.9 mph66%29.76 "Hg1 mi
12:55 PM5 °FLight snow. Low clouds.25 mph66%29.75 "Hg1 mi
12:35 PM5 °FLow clouds.15 mph66%29.76 "Hg1 mi
12:15 PM5 °FLow clouds.21 mph66%29.76 "Hg1 mi
11:55 AM5 °FMostly cloudy.20 mph66%29.77 "Hg2 mi
11:35 AM5 °FMostly cloudy.20 mph66%29.77 "Hg1 mi
11:15 AM5 °FLow clouds.21 mph66%29.77 "Hg1 mi
10:55 AM5 °FLow clouds.12 mph66%29.79 "Hg2 mi
10:35 AM5 °FLow clouds.14 mph66%29.79 "Hg2 mi
10:15 AM5 °FMore clouds than sun.14 mph66%29.79 "Hg4 mi
9:55 AM3 °FMostly cloudy.18 mph72%29.78 "Hg3 mi
9:35 AM3 °FLight snow. Low clouds.12 mph72%29.78 "Hg1 mi
9:15 AM3 °FLight snow. Low clouds.13 mph72%29.77 "Hg1 mi
8:55 AM3 °FLight snow. Low clouds.10 mph72%29.77 "Hg1 mi
8:35 AM3 °FLight snow. Low clouds.12 mph66%29.76 "Hg1 mi
8:15 AM1 °FLight snow. Low clouds.12 mph71%29.76 "Hg1 mi
7:55 AM3 °FLight snow. Low clouds.10 mph66%29.76 "Hg2 mi
7:35 AM3 °FOvercast.14 mph66%29.76 "Hg2 mi
7:15 AM5 °FMostly cloudy.15 mph66%29.76 "Hg2 mi
6:55 AM5 °FLight snow. Mostly cloudy.12 mph66%29.76 "Hg2 mi
6:35 AM5 °FLight snow. Mostly cloudy.13 mph66%29.76 "Hg2 mi
6:15 AM5 °FLight snow. Mostly cloudy.13 mph66%29.75 "Hg3 mi
5:55 AM5 °FLight snow. Mostly cloudy.8 mph66%29.75 "Hg1 mi
5:35 AM5 °FLight snow. Mostly cloudy.9 mph66%29.75 "Hg2 mi
5:15 AM5 °FLight snow. Mostly cloudy.10 mph66%29.74 "Hg1 mi
Weather by CustomWeather, © 2015

See weather overviewHow to use our weather pages